Voltar ao catálogo

DELTA 1 DEB

AtivoSSO
NORAD 20008·DEBRIS·🇺🇸 United States

Lançado Mar 5, 1978 de Vandenberg Space Force Base

Loading…

Próximas Passagens (próximas 24 horas)

TLE

EnvelhecendoSource: Space-Track

Época: Sep 11, 2026, 04:13 UTC

1 20008U 78026HR  26254.17578593  .00000302  00000-0  23747-3 0  9998
2 20008  98.8483 144.4962 0198603 163.9092 196.8498 13.89856587 23289

Acompanhe DELTA 1 DEB em tempo real com AllMySat

Download on the App Store